User: anonymous   Login
Location: Unspecified
(0.0000°N, 0.0000°E)
Time: 19:24:14
(UTC+00:00)
Language:

STARLINK-3586 - Orbit

View from above orbital plane
View from above orbital plane
View from above satellite
View from above satellite

Ground track
Ground track

The orbit is defined by the following mean orbital elements,

1 51795U          26145.02418963 +.00000000 +00000-0 +28743-4 0 00009
2 51795  53.2147   6.6404 0001417  93.2477 266.8677 15.08839236    03
Epoch (UTC): 25 May 2026 00:34:49
Eccentricity: 0.0001417
inclination: 53.2147°
perigee height: 539 km
apogee height: 541 km
right ascension of ascending node: 6.6404°
argument of perigee: 93.2477°
revolutions per day: 15.08839236
mean anomaly at epoch: 266.8677°

The dashed part of the orbit path shows where the satellite is in the earth's shadow,  

DLR